Regional Weather Roundup
Issued by NWS Charleston, SC

Current Version | Previous Version | Graphics & Text | Print | Product List | Glossary On
Versions: 1 2 3 4 5 6 7 8 9 10 11 12 13 14 15 16 17 18 19 20 21 22 23 24 25 26 27 28 29 30 31 32 33 34 35 36 37 38 39 40 41 42 43 44 45 46 47 48 49 50
000
ASUS42 KCHS 240310
RWRCHS
REGIONAL WEATHER ROUNDUP
NATIONAL WEATHER SERVICE CHARLESTON SC
1100 PM EDT WED JUL 23 2014

NOTE: "FAIR" INDICATES FEW OR NO CLOUDS BELOW 12,000 FEET WITH NO
SIGNIFICANT WEATHER AND/OR OBSTRUCTIONS TO VISIBILITY.

NOT ALL STATIONS ARE QUALITY CONTROLLED BY THE NATIONAL
WEATHER SERVICE. USE DATA WITH CAUTION...ESPECIALLY
DEWPOINT OBSERVATIONS.

SCZ027-030-031-034>040-042>050-240400-
...SOUTH CAROLINA...

CITY           SKY/WX    TMP DP  RH WIND       PRES   REMARKS
N CHARLESTON   PTCLDY    79  76  90 S7        29.98F
WATERFRONT PRK   N/A     82 N/A N/A S7          N/A
FORT JOHNSON   NOT AVBL
MOUNT PLEASANT FAIR      79  77  94 CALM      29.98F
JOHNS ISLAND   CLEAR     82  72  69 S3        29.99S
PINOPOLIS        N/A     81  75  83 SW5       29.91S
MONCKS CORNER    N/A     79  77  94 S3        29.97F
SUMMERVILLE    NOT AVBL
BEAUFORT MCAS  PTCLDY    82  77  84 SW5       29.98S HX  90
BEAUFORT ARPT  FAIR      81  77  89 S5        29.98S
HILTON HEAD IS PTCLDY    82  77  83 S6        30.00S HX  91
GEORGETOWN     NOT AVBL
WALTERBORO     PTCLDY    79 N/A N/A S3        29.99S
ORANGEBURG     CLEAR     79  73  82 S8        29.97F
BARNWELL       FAIR      82  75  78 S3        29.98S
AIKEN          FAIR      77  73  88 CALM      30.01S
MANNING        FAIR      81  81 100 S5        29.97S HX  91
KINGSTREE      NOT AVBL
COLUMBIA       PTCLDY    84  72  67 CALM      29.94F
SUMTER         CLEAR     80  75  83 S9        29.94F
FLORENCE       CLEAR     79  75  87 S7        29.95S
MYRTLE BEACH   MOCLDY    81  73  78 SW8       29.98R
N MYRTLE BEACH PTCLDY    81  75  82 SW8       29.96F

$$

GAZ063-065-086>088-099>101-113>116-118-119-134-136>141-150-240400-
...GEORGIA...

CITY           SKY/WX    TMP DP  RH WIND       PRES   REMARKS
SAVANNAH ARPT  PTCLDY    81  75  82 S6        29.99S
HUNTER AAF     PTCLDY    81  77  87 S6        29.97F
FORT STEWART   MOCLDY    80  75  87 CALM      29.99R
STATESBORO     NOT AVBL
SYLVANIA       PTCLDY    81  78  92 S5        29.99S
CLAXTON        FAIR      81  81 100 CALM      29.99R HX  91
THOMSON        CLEAR     77  77 100 CALM      30.03R
AUGUSTA-BUSH   CLEAR     76  72  87 CALM      29.96S
AUGUSTA-DANIEL CLEAR     79  72  79 CALM      29.98S
SWAINSBORO     FAIR      79  79 100 CALM      29.99R
VIDALIA          N/A     79  72  78 CALM      29.99S
ALMA           CLEAR     76  70  82 CALM      29.99R
WAYCROSS       CLEAR     85  78  78 S6        30.00R HX  96
JESUP          NOT AVBL
BRUNSWICK      PTCLDY    82  77  83 CALM      30.00S HX  91
SAINT SIMONS   PTCLDY    83  76  79 S9        30.00S HX  91

$$

SCZ027-028-034-036>038-045-046-048>050-GAZ119-141-240400-
...LAKE AND SUPPLEMENTAL COASTAL OBSERVATIONS...

STATION/POSITION TIME  TEMP    WIND        PRES    WAVE   SWELL
                       AIR SEA DIR/SP/G            HT/PER HT/PER/DIR
                 (UTC) (F)     (DEG/KT/KT) (MB)    (FT/S) (FT/S/D)
UPR LAKE MARION  NOT AVBL
WINYAH BAY       0200   79     240/  2     1015.0S
LAKE MURRAY      0200   84     230/  9/ 11 1013.5F
ACE BASIN NERRS  0200   82        CALM     1015.0S
FORT PULASKI     0300   82     170/  4/  7 1015.8R
SAPELO ISLAND    0200   83     180/ 10     1016.0S

$$

ANZ835-935-AMZ111-154-330-350-352-354-374-450-454-472-240400-
...C-MAN AND BUOY OBSERVATIONS...

STATION/POSITION TIME  TEMP    WIND        PRES    WAVE   SWELL
                       AIR SEA DIR/SP/G            HT/PER HT/PER/DIR
                 (UTC) (F)     (DEG/KT/KT) (MB)    (FT/S) (FT/S/D)
FOLLY BEACH CMAN 0200   82     220/ 11/ 13 1015.9R
BUOY 41004       0300   82 82  210/ 14/ 16 1015.0S   3/ 7   2/ 7
BUOY 41008       0300   83 85  180/ 16/ 17 1015.6R   2/ 7   2/110/ 7
5E ST. MARYS GA  0300      84                N/A     3/ 3
FRYING PAN BUOY  NOT AVBL
BUOY 41025       0300          VRB 17/ 21  1014.1R   4/ 4   2/170/ 7
CAPE LOOKOUT NC  0200   80     220/ 12/ 16 1014.4S
BUOY 41002       0219   82 82  210/ 17/ 21 1017.8F   4/ 5   2/110/ 9
BUOY 41010       0300   82 83  170/ 10/ 12 1018.1F   3/ 8   3/120/ 8
BUOY 41012       NOT AVBL
ST AUGUSTINE FL  0300   82     190/ 10/ 11 1017.5R
CAPERS NEARSHORE 0200   82     220/ 14/ 16   N/A
FRIPP NEARSHORE  NOT AVBL


$$



USA.gov is the U.S. government's official web portal to all federal, state and local government web resources and services.